owner,sensor,date,latitude,longitude,vertical_datum,mass_concentration_of_oxygen_in_sea_water,qcFlag 
DISL,ioos:station:DISL:MBLA:1,2014-11-01T00:02:00Z,30.4367,-88.0117,3.033,6.78,1111122 
DISL,ioos:station:DISL:MBLA:1,2014-11-01T00:05:00Z,30.4367,-88.0117,2.501,7.62,1111122 
DISL,ioos:station:DISL:MBLA:1,2014-11-01T00:07:00Z,30.4367,-88.0117,1.888,7.88,1111122 
DISL,ioos:station:DISL:MBLA:1,2014-11-01T00:10:00Z,30.4367,-88.0117,1.437,7.89,1111122 
DISL,ioos:station:DISL:MBLA:1,2014-11-01T00:12:00Z,30.4367,-88.0117,0.849,7.88,1111122 
DISL,ioos:station:DISL:MBLA:1,2014-11-01T00:15:00Z,30.4367,-88.0117,0.469,7.88,1111122 
DISL,ioos:station:DISL:MBLA:1,2014-11-01T01:02:00Z,30.4367,-88.0117,2.962,6.94,1111122 
DISL,ioos:station:DISL:MBLA:1,2014-11-01T01:05:00Z,30.4367,-88.0117,2.501,7.47,1111122 
DISL,ioos:station:DISL:MBLA:1,2014-11-01T01:08:00Z,30.4367,-88.0117,1.946,7.73,1111122 
DISL,ioos:station:DISL:MBLA:1,2014-11-01T01:10:00Z,30.4367,-88.0117,1.649,7.79,1111122 
DISL,ioos:station:DISL:MBLA:1,2014-11-01T01:13:00Z,30.4367,-88.0117,0.79,7.85,1111122 
DISL,ioos:station:DISL:MBLA:1,2014-11-01T01:16:00Z,30.4367,-88.0117,0.396,7.86,1111122 
DISL,ioos:station:DISL:MBLA:1,2014-11-01T02:02:00Z,30.4367,-88.0117,3.096,7.22,1111122 
DISL,ioos:station:DISL:MBLA:1,2014-11-01T02:05:00Z,30.4367,-88.0117,2.387,7.44,1111122 
DISL,ioos:station:DISL:MBLA:1,2014-11-01T02:07:00Z,30.4367,-88.0117,1.89,7.52,1111122 
DISL,ioos:station:DISL:MBLA:1,2014-11-01T02:10:00Z,30.4367,-88.0117,1.489,7.56,1111122 
DISL,ioos:station:DISL:MBLA:1,2014-11-01T02:12:00Z,30.4367,-88.0117,1.009,7.59,1111122 
DISL,ioos:station:DISL:MBLA:1,2014-11-01T02:15:00Z,30.4367,-88.0117,0.446,7.65,1111122 
DISL,ioos:station:DISL:MBLA:1,2014-11-01T03:02:00Z,30.4367,-88.0117,3.072,7.12,1111122 
DISL,ioos:station:DISL:MBLA:1,2014-11-01T03:08:00Z,30.4367,-88.0117,1.758,7.32,1111122 
DISL,ioos:station:DISL:MBLA:1,2014-11-01T03:10:00Z,30.4367,-88.0117,1.363,7.31,1111122 
DISL,ioos:station:DISL:MBLA:1,2014-11-01T03:12:00Z,30.4367,-88.0117,0.707,7.38,1111122 
DISL,ioos:station:DISL:MBLA:1,2014-11-01T03:15:00Z,30.4367,-88.0117,0.178,7.46,1111122 
DISL,ioos:station:DISL:MBLA:1,2014-11-01T04:03:00Z,30.4367,-88.0117,3.109,7.15,1111122 
DISL,ioos:station:DISL:MBLA:1,2014-11-01T04:06:00Z,30.4367,-88.0117,2.487,7.24,1111122 
DISL,ioos:station:DISL:MBLA:1,2014-11-01T04:09:00Z,30.4367,-88.0117,1.744,7.2,1111122 
DISL,ioos:station:DISL:MBLA:1,2014-11-01T04:11:00Z,30.4367,-88.0117,1.006,7.24,1111122 
DISL,ioos:station:DISL:MBLA:1,2014-11-01T04:14:00Z,30.4367,-88.0117,0.782,7.21,1111122 
DISL,ioos:station:DISL:MBLA:1,2014-11-01T04:17:00Z,30.4367,-88.0117,0.671,7.21,1111122 
DISL,ioos:station:DISL:MBLA:1,2014-11-01T05:03:00Z,30.4367,-88.0117,3.037,7.16,1111122 
DISL,ioos:station:DISL:MBLA:1,2014-11-01T05:05:00Z,30.4367,-88.0117,2.48,7.13,1111122 
DISL,ioos:station:DISL:MBLA:1,2014-11-01T05:07:00Z,30.4367,-88.0117,1.993,7.14,1111122 
DISL,ioos:station:DISL:MBLA:1,2014-11-01T05:10:00Z,30.4367,-88.0117,1.355,7.13,1111122 
DISL,ioos:station:DISL:MBLA:1,2014-11-01T05:13:00Z,30.4367,-88.0117,0.589,7.15,1111122 
DISL,ioos:station:DISL:MBLA:1,2014-11-01T05:15:00Z,30.4367,-88.0117,0.001,7.19,1111122 
DISL,ioos:station:DISL:MBLA:1,2014-11-01T06:02:00Z,30.4367,-88.0117,3.049,7.26,1111122 
DISL,ioos:station:DISL:MBLA:1,2014-11-01T06:05:00Z,30.4367,-88.0117,2.421,7.31,1111122 
DISL,ioos:station:DISL:MBLA:1,2014-11-01T06:08:00Z,30.4367,-88.0117,1.923,7.29,1111122 
DISL,ioos:station:DISL:MBLA:1,2014-11-01T06:10:00Z,30.4367,-88.0117,1.445,7.29,1111122 
DISL,ioos:station:DISL:MBLA:1,2014-11-01T06:12:00Z,30.4367,-88.0117,0.953,7.28,1111122 
DISL,ioos:station:DISL:MBLA:1,2014-11-01T06:15:00Z,30.4367,-88.0117,0.834,7.3,1111122 
DISL,ioos:station:DISL:MBLA:1,2014-11-01T07:03:00Z,30.4367,-88.0117,2.982,7.3,1111122 
DISL,ioos:station:DISL:MBLA:1,2014-11-01T07:08:00Z,30.4367,-88.0117,1.868,7.38,1111122 
DISL,ioos:station:DISL:MBLA:1,2014-11-01T07:11:00Z,30.4367,-88.0117,1.482,7.39,1111122 
DISL,ioos:station:DISL:MBLA:1,2014-11-01T07:16:00Z,30.4367,-88.0117,0.339,7.48,1111122 
DISL,ioos:station:DISL:MBLA:1,2014-11-01T08:03:00Z,30.4367,-88.0117,2.759,7.34,1111122 
DISL,ioos:station:DISL:MBLA:1,2014-11-01T08:05:00Z,30.4367,-88.0117,2.458,7.37,1111122 
DISL,ioos:station:DISL:MBLA:1,2014-11-01T08:08:00Z,30.4367,-88.0117,1.906,7.33,1111122 
DISL,ioos:station:DISL:MBLA:1,2014-11-01T08:10:00Z,30.4367,-88.0117,1.851,7.34,1111122 
DISL,ioos:station:DISL:MBLA:1,2014-11-01T08:13:00Z,30.4367,-88.0117,1.057,7.31,1111122 
DISL,ioos:station:DISL:MBLA:1,2014-11-01T08:15:00Z,30.4367,-88.0117,0.414,7.3,1111122 
DISL,ioos:station:DISL:MBLA:1,2014-11-01T09:03:00Z,30.4367,-88.0117,3.157,7.42,1111122 
DISL,ioos:station:DISL:MBLA:1,2014-11-01T09:05:00Z,30.4367,-88.0117,2.643,7.28,1111122 
DISL,ioos:station:DISL:MBLA:1,2014-11-01T09:08:00Z,30.4367,-88.0117,2.024,7.31,1111122 
DISL,ioos:station:DISL:MBLA:1,2014-11-01T09:10:00Z,30.4367,-88.0117,1.545,7.36,1111122 
DISL,ioos:station:DISL:MBLA:1,2014-11-01T09:13:00Z,30.4367,-88.0117,0.977,7.37,1111122 
DISL,ioos:station:DISL:MBLA:1,2014-11-01T09:16:00Z,30.4367,-88.0117,0.474,7.36,1111122 
DISL,ioos:station:DISL:MBLA:1,2014-11-01T10:02:00Z,30.4367,-88.0117,3.045,7.35,1111122 
DISL,ioos:station:DISL:MBLA:1,2014-11-01T10:05:00Z,30.4367,-88.0117,2.572,7.44,1111122 
DISL,ioos:station:DISL:MBLA:1,2014-11-01T10:07:00Z,30.4367,-88.0117,1.815,7.47,1111122 
DISL,ioos:station:DISL:MBLA:1,2014-11-01T10:10:00Z,30.4367,-88.0117,1.675,7.47,1111122 
DISL,ioos:station:DISL:MBLA:1,2014-11-01T10:13:00Z,30.4367,-88.0117,1.2,7.48,1111122 
DISL,ioos:station:DISL:MBLA:1,2014-11-01T10:15:00Z,30.4367,-88.0117,0.417,7.51,1111122 
DISL,ioos:station:DISL:MBLA:1,2014-11-01T11:02:00Z,30.4367,-88.0117,2.836,7.49,1111122 
DISL,ioos:station:DISL:MBLA:1,2014-11-01T11:05:00Z,30.4367,-88.0117,2.556,7.56,1111122 
DISL,ioos:station:DISL:MBLA:1,2014-11-01T11:07:00Z,30.4367,-88.0117,1.921,7.55,1111122 
DISL,ioos:station:DISL:MBLA:1,2014-11-01T11:10:00Z,30.4367,-88.0117,1.439,7.55,1111122 
DISL,ioos:station:DISL:MBLA:1,2014-11-01T11:12:00Z,30.4367,-88.0117,0.959,7.51,1111122 
DISL,ioos:station:DISL:MBLA:1,2014-11-01T11:18:00Z,30.4367,-88.0117,0.496,7.53,1111122 
DISL,ioos:station:DISL:MBLA:1,2014-11-01T12:02:00Z,30.4367,-88.0117,2.88,7.52,1111122 
DISL,ioos:station:DISL:MBLA:1,2014-11-01T12:05:00Z,30.4367,-88.0117,2.439,7.58,1111122 
DISL,ioos:station:DISL:MBLA:1,2014-11-01T12:07:00Z,30.4367,-88.0117,1.958,7.47,1111122 
DISL,ioos:station:DISL:MBLA:1,2014-11-01T12:10:00Z,30.4367,-88.0117,1.441,7.5,1111122 
DISL,ioos:station:DISL:MBLA:1,2014-11-01T12:12:00Z,30.4367,-88.0117,1.087,7.52,1111122 
DISL,ioos:station:DISL:MBLA:1,2014-11-01T12:15:00Z,30.4367,-88.0117,0.357,7.54,1111122 
DISL,ioos:station:DISL:MBLA:1,2014-11-01T13:02:00Z,30.4367,-88.0117,3.074,7.27,1111122 
DISL,ioos:station:DISL:MBLA:1,2014-11-01T13:05:00Z,30.4367,-88.0117,2.611,7.28,1111122 
DISL,ioos:station:DISL:MBLA:1,2014-11-01T13:08:00Z,30.4367,-88.0117,1.989,7.33,1111122 
DISL,ioos:station:DISL:MBLA:1,2014-11-01T13:10:00Z,30.4367,-88.0117,1.68,7.37,1111122 
DISL,ioos:station:DISL:MBLA:1,2014-11-01T13:13:00Z,30.4367,-88.0117,1.121,7.44,1111122 
DISL,ioos:station:DISL:MBLA:1,2014-11-01T13:15:00Z,30.4367,-88.0117,0.523,7.5,1111122 
DISL,ioos:station:DISL:MBLA:1,2014-11-01T14:02:00Z,30.4367,-88.0117,3.042,7.22,1111122 
DISL,ioos:station:DISL:MBLA:1,2014-11-01T14:05:00Z,30.4367,-88.0117,2.539,7.23,1111122 
DISL,ioos:station:DISL:MBLA:1,2014-11-01T14:07:00Z,30.4367,-88.0117,2.073,7.26,1111122 
DISL,ioos:station:DISL:MBLA:1,2014-11-01T14:10:00Z,30.4367,-88.0117,1.443,7.38,1111122 
DISL,ioos:station:DISL:MBLA:1,2014-11-01T14:12:00Z,30.4367,-88.0117,1.011,7.43,1111122 
DISL,ioos:station:DISL:MBLA:1,2014-11-01T14:15:00Z,30.4367,-88.0117,0.548,7.44,1111122 
DISL,ioos:station:DISL:MBLA:1,2014-11-01T15:02:00Z,30.4367,-88.0117,2.948,7.2,1111122 
DISL,ioos:station:DISL:MBLA:1,2014-11-01T15:05:00Z,30.4367,-88.0117,2.491,7.37,1111122 
DISL,ioos:station:DISL:MBLA:1,2014-11-01T15:07:00Z,30.4367,-88.0117,1.948,7.54,1111122 
DISL,ioos:station:DISL:MBLA:1,2014-11-01T15:10:00Z,30.4367,-88.0117,1.402,7.6,1111122 
DISL,ioos:station:DISL:MBLA:1,2014-11-01T15:12:00Z,30.4367,-88.0117,0.878,7.6,1111122 
DISL,ioos:station:DISL:MBLA:1,2014-11-01T15:14:00Z,30.4367,-88.0117,0.498,7.62,1111122 
DISL,ioos:station:DISL:MBLA:1,2014-11-01T16:02:00Z,30.4367,-88.0117,2.987,7.44,1111122 
DISL,ioos:station:DISL:MBLA:1,2014-11-01T16:05:00Z,30.4367,-88.0117,2.534,7.46,1111122 
DISL,ioos:station:DISL:MBLA:1,2014-11-01T16:08:00Z,30.4367,-88.0117,1.985,7.65,1111122 
DISL,ioos:station:DISL:MBLA:1,2014-11-01T16:10:00Z,30.4367,-88.0117,1.423,7.74,1111122 
DISL,ioos:station:DISL:MBLA:1,2014-11-01T16:13:00Z,30.4367,-88.0117,1.087,7.69,1111122 
DISL,ioos:station:DISL:MBLA:1,2014-11-01T16:15:00Z,30.4367,-88.0117,0.582,7.72,1111122 
DISL,ioos:station:DISL:MBLA:1,2014-11-01T17:02:00Z,30.4367,-88.0117,3.006,7.53,1111122 
DISL,ioos:station:DISL:MBLA:1,2014-11-01T17:07:00Z,30.4367,-88.0117,1.969,7.74,1111122 
DISL,ioos:station:DISL:MBLA:1,2014-11-01T17:10:00Z,30.4367,-88.0117,1.376,7.83,1111122 
DISL,ioos:station:DISL:MBLA:1,2014-11-01T17:12:00Z,30.4367,-88.0117,1.036,7.85,1111122 
DISL,ioos:station:DISL:MBLA:1,2014-11-01T17:15:00Z,30.4367,-88.0117,0.555,7.85,1111122 
DISL,ioos:station:DISL:MBLA:1,2014-11-01T18:02:00Z,30.4367,-88.0117,3.079,7.79,1111122 
DISL,ioos:station:DISL:MBLA:1,2014-11-01T18:05:00Z,30.4367,-88.0117,2.459,7.82,1111122 
DISL,ioos:station:DISL:MBLA:1,2014-11-01T18:07:00Z,30.4367,-88.0117,2.07,7.89,1111122 
DISL,ioos:station:DISL:MBLA:1,2014-11-01T18:10:00Z,30.4367,-88.0117,1.44,7.91,1111122 
DISL,ioos:station:DISL:MBLA:1,2014-11-01T18:12:00Z,30.4367,-88.0117,1.133,7.89,1111122 
DISL,ioos:station:DISL:MBLA:1,2014-11-01T18:15:00Z,30.4367,-88.0117,0.536,7.93,1111122 
DISL,ioos:station:DISL:MBLA:1,2014-11-01T19:02:00Z,30.4367,-88.0117,2.99,7.69,1111122 
DISL,ioos:station:DISL:MBLA:1,2014-11-01T19:05:00Z,30.4367,-88.0117,2.439,7.83,1111122 
DISL,ioos:station:DISL:MBLA:1,2014-11-01T19:08:00Z,30.4367,-88.0117,2.09,7.9,1111122 
DISL,ioos:station:DISL:MBLA:1,2014-11-01T19:10:00Z,30.4367,-88.0117,1.477,7.92,1111122 
DISL,ioos:station:DISL:MBLA:1,2014-11-01T19:16:00Z,30.4367,-88.0117,0.535,7.96,1111122 
DISL,ioos:station:DISL:MBLA:1,2014-11-01T20:02:00Z,30.4367,-88.0117,3.006,7.76,1111122 
DISL,ioos:station:DISL:MBLA:1,2014-11-01T20:05:00Z,30.4367,-88.0117,2.369,7.84,1111122 
DISL,ioos:station:DISL:MBLA:1,2014-11-01T20:07:00Z,30.4367,-88.0117,1.837,7.84,1111122 
DISL,ioos:station:DISL:MBLA:1,2014-11-01T20:10:00Z,30.4367,-88.0117,1.633,7.87,1111122 
DISL,ioos:station:DISL:MBLA:1,2014-11-01T20:13:00Z,30.4367,-88.0117,0.915,7.84,1111122 
DISL,ioos:station:DISL:MBLA:1,2014-11-01T20:15:00Z,30.4367,-88.0117,0.29,7.89,1111122 
DISL,ioos:station:DISL:MBLA:1,2014-11-01T21:02:00Z,30.4367,-88.0117,2.994,7.7,1111122 
DISL,ioos:station:DISL:MBLA:1,2014-11-01T21:05:00Z,30.4367,-88.0117,2.438,7.86,1111122 
DISL,ioos:station:DISL:MBLA:1,2014-11-01T21:07:00Z,30.4367,-88.0117,1.948,7.92,1111122 
DISL,ioos:station:DISL:MBLA:1,2014-11-01T21:10:00Z,30.4367,-88.0117,1.524,7.95,1111122 
DISL,ioos:station:DISL:MBLA:1,2014-11-01T21:13:00Z,30.4367,-88.0117,0.983,7.92,1111122 
DISL,ioos:station:DISL:MBLA:1,2014-11-01T21:15:00Z,30.4367,-88.0117,0.558,7.95,1111122 
DISL,ioos:station:DISL:MBLA:1,2014-11-01T22:02:00Z,30.4367,-88.0117,2.985,7.61,1111122 
DISL,ioos:station:DISL:MBLA:1,2014-11-01T22:05:00Z,30.4367,-88.0117,2.389,7.83,1111122 
DISL,ioos:station:DISL:MBLA:1,2014-11-01T22:07:00Z,30.4367,-88.0117,2.024,7.91,1111122 
DISL,ioos:station:DISL:MBLA:1,2014-11-01T22:10:00Z,30.4367,-88.0117,1.446,7.98,1111122 
DISL,ioos:station:DISL:MBLA:1,2014-11-01T22:12:00Z,30.4367,-88.0117,1.006,7.99,1111122 
DISL,ioos:station:DISL:MBLA:1,2014-11-01T22:15:00Z,30.4367,-88.0117,0.384,8.03,1111122 
DISL,ioos:station:DISL:MBLA:1,2014-11-01T23:02:00Z,30.4367,-88.0117,2.973,7.49,1111122 
DISL,ioos:station:DISL:MBLA:1,2014-11-01T23:05:00Z,30.4367,-88.0117,2.451,7.73,1111122 
DISL,ioos:station:DISL:MBLA:1,2014-11-01T23:07:00Z,30.4367,-88.0117,1.991,7.87,1111122 
DISL,ioos:station:DISL:MBLA:1,2014-11-01T23:10:00Z,30.4367,-88.0117,1.428,7.95,1111122 
DISL,ioos:station:DISL:MBLA:1,2014-11-01T23:12:00Z,30.4367,-88.0117,1.002,7.97,1111122 
DISL,ioos:station:DISL:MBLA:1,2014-11-01T23:14:00Z,30.4367,-88.0117,0.502,8.04,1111122 
DISL,ioos:station:DISL:MBLA:1,2014-11-02T00:02:00Z,30.4367,-88.0117,2.942,7.43,1111122 
DISL,ioos:station:DISL:MBLA:1,2014-11-02T00:05:00Z,30.4367,-88.0117,2.508,7.66,1111122 
DISL,ioos:station:DISL:MBLA:1,2014-11-02T00:07:00Z,30.4367,-88.0117,2.049,7.81,1111122 
DISL,ioos:station:DISL:MBLA:1,2014-11-02T00:10:00Z,30.4367,-88.0117,1.468,7.83,1111122 
DISL,ioos:station:DISL:MBLA:1,2014-11-02T00:12:00Z,30.4367,-88.0117,0.802,7.91,1111122 
DISL,ioos:station:DISL:MBLA:1,2014-11-02T00:14:00Z,30.4367,-88.0117,0.54,7.97,1111122 
DISL,ioos:station:DISL:MBLA:1,2014-11-02T01:02:00Z,30.4367,-88.0117,2.95,7.75,1111122 
DISL,ioos:station:DISL:MBLA:1,2014-11-02T01:05:00Z,30.4367,-88.0117,2.523,7.92,1111122 
DISL,ioos:station:DISL:MBLA:1,2014-11-02T01:07:00Z,30.4367,-88.0117,2.009,7.96,1111122 
DISL,ioos:station:DISL:MBLA:1,2014-11-02T01:10:00Z,30.4367,-88.0117,1.483,8.02,1111122 
DISL,ioos:station:DISL:MBLA:1,2014-11-02T01:12:00Z,30.4367,-88.0117,0.936,7.99,1111122 
DISL,ioos:station:DISL:MBLA:1,2014-11-02T01:15:00Z,30.4367,-88.0117,0.45,8.01,1111122 
DISL,ioos:station:DISL:MBLA:1,2014-11-02T02:02:00Z,30.4367,-88.0117,2.985,7.99,1111122 
DISL,ioos:station:DISL:MBLA:1,2014-11-02T02:05:00Z,30.4367,-88.0117,2.544,8.0,1111122 
DISL,ioos:station:DISL:MBLA:1,2014-11-02T02:07:00Z,30.4367,-88.0117,1.982,8.01,1111122 
DISL,ioos:station:DISL:MBLA:1,2014-11-02T02:10:00Z,30.4367,-88.0117,1.45,8.05,1111122 
DISL,ioos:station:DISL:MBLA:1,2014-11-02T02:12:00Z,30.4367,-88.0117,1.011,7.99,1111122 
DISL,ioos:station:DISL:MBLA:1,2014-11-02T02:14:00Z,30.4367,-88.0117,0.385,7.99,1111122 
DISL,ioos:station:DISL:MBLA:1,2014-11-02T03:03:00Z,30.4367,-88.0117,3.054,7.95,1111122 
DISL,ioos:station:DISL:MBLA:1,2014-11-02T03:07:00Z,30.4367,-88.0117,1.999,7.94,1111122 
DISL,ioos:station:DISL:MBLA:1,2014-11-02T03:10:00Z,30.4367,-88.0117,1.391,7.98,1111122 
DISL,ioos:station:DISL:MBLA:1,2014-11-02T03:12:00Z,30.4367,-88.0117,0.933,7.94,1111122 
DISL,ioos:station:DISL:MBLA:1,2014-11-02T03:15:00Z,30.4367,-88.0117,0.506,7.96,1111122 
DISL,ioos:station:DISL:MBLA:1,2014-11-02T04:02:00Z,30.4367,-88.0117,2.971,7.88,1111122 
DISL,ioos:station:DISL:MBLA:1,2014-11-02T04:05:00Z,30.4367,-88.0117,2.522,7.89,1111122 
DISL,ioos:station:DISL:MBLA:1,2014-11-02T04:07:00Z,30.4367,-88.0117,2.041,7.88,1111122 
DISL,ioos:station:DISL:MBLA:1,2014-11-02T04:10:00Z,30.4367,-88.0117,1.484,7.89,1111122 
DISL,ioos:station:DISL:MBLA:1,2014-11-02T04:12:00Z,30.4367,-88.0117,1.0,7.9,1111122 
DISL,ioos:station:DISL:MBLA:1,2014-11-02T04:15:00Z,30.4367,-88.0117,0.518,7.91,1111122 
DISL,ioos:station:DISL:MBLA:1,2014-11-02T05:02:00Z,30.4367,-88.0117,2.921,7.9,1111122 
DISL,ioos:station:DISL:MBLA:1,2014-11-02T05:05:00Z,30.4367,-88.0117,2.533,7.89,1111122 
DISL,ioos:station:DISL:MBLA:1,2014-11-02T05:07:00Z,30.4367,-88.0117,1.997,7.92,1111122 
DISL,ioos:station:DISL:MBLA:1,2014-11-02T05:10:00Z,30.4367,-88.0117,1.499,7.95,1111122 
DISL,ioos:station:DISL:MBLA:1,2014-11-02T05:12:00Z,30.4367,-88.0117,0.972,7.93,1111122 
DISL,ioos:station:DISL:MBLA:1,2014-11-02T05:15:00Z,30.4367,-88.0117,0.307,7.98,1111122 
DISL,ioos:station:DISL:MBLA:1,2014-11-02T06:03:00Z,30.4367,-88.0117,3.006,7.92,1111122 
DISL,ioos:station:DISL:MBLA:1,2014-11-02T06:05:00Z,30.4367,-88.0117,2.584,7.92,1111122 
DISL,ioos:station:DISL:MBLA:1,2014-11-02T06:07:00Z,30.4367,-88.0117,2.022,7.91,1111122 
DISL,ioos:station:DISL:MBLA:1,2014-11-02T06:10:00Z,30.4367,-88.0117,1.41,7.9,1111122 
DISL,ioos:station:DISL:MBLA:1,2014-11-02T06:12:00Z,30.4367,-88.0117,1.128,7.88,1111122 
DISL,ioos:station:DISL:MBLA:1,2014-11-02T06:15:00Z,30.4367,-88.0117,0.326,7.89,1111122 
DISL,ioos:station:DISL:MBLA:1,2014-11-02T07:03:00Z,30.4367,-88.0117,3.036,7.97,1111122 
DISL,ioos:station:DISL:MBLA:1,2014-11-02T07:08:00Z,30.4367,-88.0117,1.926,7.96,1111122 
DISL,ioos:station:DISL:MBLA:1,2014-11-02T07:10:00Z,30.4367,-88.0117,1.403,7.95,1111122 
DISL,ioos:station:DISL:MBLA:1,2014-11-02T07:12:00Z,30.4367,-88.0117,0.975,7.96,1111122 
DISL,ioos:station:DISL:MBLA:1,2014-11-02T07:15:00Z,30.4367,-88.0117,0.391,7.99,1111122 
DISL,ioos:station:DISL:MBLA:1,2014-11-02T08:02:00Z,30.4367,-88.0117,2.995,7.93,1111122 
DISL,ioos:station:DISL:MBLA:1,2014-11-02T08:05:00Z,30.4367,-88.0117,2.514,7.93,1111122 
DISL,ioos:station:DISL:MBLA:1,2014-11-02T08:07:00Z,30.4367,-88.0117,2.137,7.93,1111122 
DISL,ioos:station:DISL:MBLA:1,2014-11-02T08:10:00Z,30.4367,-88.0117,1.505,7.94,1111122 
DISL,ioos:station:DISL:MBLA:1,2014-11-02T08:12:00Z,30.4367,-88.0117,1.022,7.89,1111122 
DISL,ioos:station:DISL:MBLA:1,2014-11-02T08:14:00Z,30.4367,-88.0117,0.366,7.9,1111122 
DISL,ioos:station:DISL:MBLA:1,2014-11-02T09:03:00Z,30.4367,-88.0117,2.998,7.86,1111122 
DISL,ioos:station:DISL:MBLA:1,2014-11-02T09:05:00Z,30.4367,-88.0117,2.533,7.95,1111122 
DISL,ioos:station:DISL:MBLA:1,2014-11-02T09:07:00Z,30.4367,-88.0117,1.955,7.95,1111122 
DISL,ioos:station:DISL:MBLA:1,2014-11-02T09:10:00Z,30.4367,-88.0117,1.733,7.94,1111122 
DISL,ioos:station:DISL:MBLA:1,2014-11-02T09:13:00Z,30.4367,-88.0117,0.939,7.96,1111122 
DISL,ioos:station:DISL:MBLA:1,2014-11-02T09:15:00Z,30.4367,-88.0117,0.326,7.99,1111122 
DISL,ioos:station:DISL:MBLA:1,2014-11-02T10:03:00Z,30.4367,-88.0117,3.018,7.66,1111122 
DISL,ioos:station:DISL:MBLA:1,2014-11-02T10:05:00Z,30.4367,-88.0117,2.549,7.83,1111122 
DISL,ioos:station:DISL:MBLA:1,2014-11-02T10:07:00Z,30.4367,-88.0117,2.068,7.89,1111122 
DISL,ioos:station:DISL:MBLA:1,2014-11-02T10:10:00Z,30.4367,-88.0117,1.477,7.94,1111122 
DISL,ioos:station:DISL:MBLA:1,2014-11-02T10:12:00Z,30.4367,-88.0117,1.033,7.98,1111122 
DISL,ioos:station:DISL:MBLA:1,2014-11-02T10:15:00Z,30.4367,-88.0117,0.509,8.02,1111122 
DISL,ioos:station:DISL:MBLA:1,2014-11-02T11:02:00Z,30.4367,-88.0117,2.948,7.56,1111122 
DISL,ioos:station:DISL:MBLA:1,2014-11-02T11:05:00Z,30.4367,-88.0117,2.543,7.68,1111122 
DISL,ioos:station:DISL:MBLA:1,2014-11-02T11:07:00Z,30.4367,-88.0117,2.078,7.78,1111122 
DISL,ioos:station:DISL:MBLA:1,2014-11-02T11:10:00Z,30.4367,-88.0117,1.514,7.8,1111122 
DISL,ioos:station:DISL:MBLA:1,2014-11-02T11:12:00Z,30.4367,-88.0117,0.994,7.8,1111122 
DISL,ioos:station:DISL:MBLA:1,2014-11-02T11:14:00Z,30.4367,-88.0117,0.503,7.81,1111122 
DISL,ioos:station:DISL:MBLA:1,2014-11-02T12:02:00Z,30.4367,-88.0117,2.972,7.36,1111122 
DISL,ioos:station:DISL:MBLA:1,2014-11-02T12:05:00Z,30.4367,-88.0117,2.514,7.62,1111122 
DISL,ioos:station:DISL:MBLA:1,2014-11-02T12:07:00Z,30.4367,-88.0117,2.041,7.83,1111122 
DISL,ioos:station:DISL:MBLA:1,2014-11-02T12:10:00Z,30.4367,-88.0117,1.481,7.88,1111122 
DISL,ioos:station:DISL:MBLA:1,2014-11-02T12:12:00Z,30.4367,-88.0117,1.032,7.87,1111122 
DISL,ioos:station:DISL:MBLA:1,2014-11-02T12:14:00Z,30.4367,-88.0117,0.514,7.92,1111122 
DISL,ioos:station:DISL:MBLA:1,2014-11-02T13:02:00Z,30.4367,-88.0117,2.971,7.64,1111122 
DISL,ioos:station:DISL:MBLA:1,2014-11-02T13:05:00Z,30.4367,-88.0117,2.555,7.9,1111122 
DISL,ioos:station:DISL:MBLA:1,2014-11-02T13:07:00Z,30.4367,-88.0117,2.066,8.01,1111122 
DISL,ioos:station:DISL:MBLA:1,2014-11-02T13:10:00Z,30.4367,-88.0117,1.577,8.04,1111122 
DISL,ioos:station:DISL:MBLA:1,2014-11-02T13:12:00Z,30.4367,-88.0117,0.89,8.04,1111122 
DISL,ioos:station:DISL:MBLA:1,2014-11-02T13:15:00Z,30.4367,-88.0117,0.695,8.05,1111122 
DISL,ioos:station:DISL:MBLA:1,2014-11-02T14:02:00Z,30.4367,-88.0117,3.055,7.74,1111122 
DISL,ioos:station:DISL:MBLA:1,2014-11-02T14:05:00Z,30.4367,-88.0117,2.465,7.97,1111122 
DISL,ioos:station:DISL:MBLA:1,2014-11-02T14:07:00Z,30.4367,-88.0117,2.016,7.98,1111122 
DISL,ioos:station:DISL:MBLA:1,2014-11-02T14:10:00Z,30.4367,-88.0117,0.0,8.01,1111122 
DISL,ioos:station:DISL:MBLA:1,2014-11-02T14:12:00Z,30.4367,-88.0117,0.946,8.01,1111122 
DISL,ioos:station:DISL:MBLA:1,2014-11-02T14:14:00Z,30.4367,-88.0117,0.383,8.07,1111122 
DISL,ioos:station:DISL:MBLA:1,2014-11-02T15:02:00Z,30.4367,-88.0117,3.056,7.91,1111122 
DISL,ioos:station:DISL:MBLA:1,2014-11-02T15:05:00Z,30.4367,-88.0117,2.431,8.01,1111122 
DISL,ioos:station:DISL:MBLA:1,2014-11-02T15:07:00Z,30.4367,-88.0117,1.931,8.02,1111122 
DISL,ioos:station:DISL:MBLA:1,2014-11-02T15:10:00Z,30.4367,-88.0117,1.398,7.98,1111122 
DISL,ioos:station:DISL:MBLA:1,2014-11-02T15:13:00Z,30.4367,-88.0117,0.839,7.98,1111122 
DISL,ioos:station:DISL:MBLA:1,2014-11-02T15:15:00Z,30.4367,-88.0117,0.398,8.04,1111122 
DISL,ioos:station:DISL:MBLA:1,2014-11-02T16:02:00Z,30.4367,-88.0117,3.039,7.82,1111122 
DISL,ioos:station:DISL:MBLA:1,2014-11-02T16:05:00Z,30.4367,-88.0117,2.477,8.07,1111122 
DISL,ioos:station:DISL:MBLA:1,2014-11-02T16:07:00Z,30.4367,-88.0117,1.896,8.07,1111122 
DISL,ioos:station:DISL:MBLA:1,2014-11-02T16:10:00Z,30.4367,-88.0117,1.547,8.12,1111122 
DISL,ioos:station:DISL:MBLA:1,2014-11-02T16:12:00Z,30.4367,-88.0117,1.087,8.1,1111122 
DISL,ioos:station:DISL:MBLA:1,2014-11-02T16:15:00Z,30.4367,-88.0117,0.391,8.12,1111122 
DISL,ioos:station:DISL:MBLA:1,2014-11-02T17:02:00Z,30.4367,-88.0117,2.972,7.73,1111122 
DISL,ioos:station:DISL:MBLA:1,2014-11-02T17:07:00Z,30.4367,-88.0117,2.066,8.09,1111122 
DISL,ioos:station:DISL:MBLA:1,2014-11-02T17:10:00Z,30.4367,-88.0117,1.392,8.11,1111122 
DISL,ioos:station:DISL:MBLA:1,2014-11-02T17:12:00Z,30.4367,-88.0117,1.003,8.14,1111122 
DISL,ioos:station:DISL:MBLA:1,2014-11-02T17:15:00Z,30.4367,-88.0117,0.55,8.19,1111122 
DISL,ioos:station:DISL:MBLA:1,2014-11-02T18:02:00Z,30.4367,-88.0117,3.033,7.9,1111122 
DISL,ioos:station:DISL:MBLA:1,2014-11-02T18:05:00Z,30.4367,-88.0117,2.546,7.94,1111122 
DISL,ioos:station:DISL:MBLA:1,2014-11-02T18:08:00Z,30.4367,-88.0117,2.066,8.08,1111122 
DISL,ioos:station:DISL:MBLA:1,2014-11-02T18:10:00Z,30.4367,-88.0117,1.566,8.19,1111122 
DISL,ioos:station:DISL:MBLA:1,2014-11-02T18:13:00Z,30.4367,-88.0117,1.06,8.32,1111122 
DISL,ioos:station:DISL:MBLA:1,2014-11-02T18:15:00Z,30.4367,-88.0117,0.546,8.49,1111122 
DISL,ioos:station:DISL:MBLA:1,2014-11-02T19:02:00Z,30.4367,-88.0117,3.011,7.9,1111122 
DISL,ioos:station:DISL:MBLA:1,2014-11-02T19:05:00Z,30.4367,-88.0117,2.435,8.1,1111122 
DISL,ioos:station:DISL:MBLA:1,2014-11-02T19:07:00Z,30.4367,-88.0117,1.951,8.2,1111122 
DISL,ioos:station:DISL:MBLA:1,2014-11-02T19:10:00Z,30.4367,-88.0117,1.567,8.24,1111122 
DISL,ioos:station:DISL:MBLA:1,2014-11-02T19:12:00Z,30.4367,-88.0117,1.053,8.2,1111122 
DISL,ioos:station:DISL:MBLA:1,2014-11-02T19:15:00Z,30.4367,-88.0117,0.446,8.47,1111122 
DISL,ioos:station:DISL:MBLA:1,2014-11-02T20:02:00Z,30.4367,-88.0117,2.976,8.15,1111122 
DISL,ioos:station:DISL:MBLA:1,2014-11-02T20:05:00Z,30.4367,-88.0117,2.569,8.23,1111122 
DISL,ioos:station:DISL:MBLA:1,2014-11-02T20:07:00Z,30.4367,-88.0117,1.91,8.31,1111122 
DISL,ioos:station:DISL:MBLA:1,2014-11-02T20:10:00Z,30.4367,-88.0117,1.557,8.34,1111122 
DISL,ioos:station:DISL:MBLA:1,2014-11-02T20:12:00Z,30.4367,-88.0117,0.935,8.53,1111122 
DISL,ioos:station:DISL:MBLA:1,2014-11-02T20:15:00Z,30.4367,-88.0117,0.412,8.65,1111122 
DISL,ioos:station:DISL:MBLA:1,2014-11-02T21:02:00Z,30.4367,-88.0117,3.001,7.78,1111122 
DISL,ioos:station:DISL:MBLA:1,2014-11-02T21:05:00Z,30.4367,-88.0117,2.434,8.05,1111122 
DISL,ioos:station:DISL:MBLA:1,2014-11-02T21:07:00Z,30.4367,-88.0117,1.926,8.26,1111122 
DISL,ioos:station:DISL:MBLA:1,2014-11-02T21:10:00Z,30.4367,-88.0117,1.582,8.38,1111122 
DISL,ioos:station:DISL:MBLA:1,2014-11-02T21:13:00Z,30.4367,-88.0117,0.916,8.66,1111122 
DISL,ioos:station:DISL:MBLA:1,2014-11-02T21:15:00Z,30.4367,-88.0117,0.4,8.84,1111122 
DISL,ioos:station:DISL:MBLA:1,2014-11-02T22:02:00Z,30.4367,-88.0117,2.988,7.96,1111122 
DISL,ioos:station:DISL:MBLA:1,2014-11-02T22:05:00Z,30.4367,-88.0117,2.431,8.29,1111122 
DISL,ioos:station:DISL:MBLA:1,2014-11-02T22:07:00Z,30.4367,-88.0117,1.934,8.39,1111122 
DISL,ioos:station:DISL:MBLA:1,2014-11-02T22:10:00Z,30.4367,-88.0117,1.417,8.61,1111122 